Flag for Germany Weather past 2 weeks in Merseburg, Saxony-Anhalt, Germany

50 °F


Feels Like: 48 °F
Forecast: 40 / 50 °F
Wind: 6 mph from East

Location: Leipzig-Schkeuditz

Current Time: Oct 9, 2015 at 5:41:09 AM

Latest Report: Oct 9, 2015 at 5:20 AM

Visibility: 0 mi

Pressure: 30.12 "Hg

Humidity: 100%

Dew point: 50 °F

Location of MerseburgLocation

Historic Weather in Merseburg — Graph


Merseburg temperature yesterday

Maximum temperature yesterday: 59 °F (at 12:50 AM)
Minimum temperature yesterday: 50 °F (at 11:20 PM)
Average temperature yesterday: 57 °F

Past Weeks' High & Low Weather Summary

High68 °F (Oct 3, 3:20 PM)100% (Sep 24, 5:50 AM)30.66 "Hg (Sep 24, 5:50 AM)
Low37 °F (Oct 1, 7:20 AM)42% (Oct 1, 4:50 PM)29.74 "Hg (Oct 6, 2:50 PM)
Average54 °F82%30.21 "Hg
* Reported Sep 24 4:20 AM — Oct 9 4:20 AM, Merseburg, Weather by CustomWeather, © 2015

Note: Actual official high and low records may vary slightly from our data, if they occured in-between our weather recording intervals... More about our weather records


Merseburg weather history for previous 24 hours

Time TempWeatherWind HumidityBarometerVisibility
4:20 AM
Fri, Oct 9
50 °FFog.5 mph100%30.12 "Hg1 mi
3:50 AM50 °FFog.5 mph100%30.12 "Hg2 mi
3:20 AM50 °FFog.5 mph100%30.12 "Hg2 mi
2:50 AM50 °FFog.5 mph100%30.12 "Hg2 mi
2:20 AM50 °FFog.5 mph100%30.12 "Hg2 mi
1:50 AM50 °FFog.6 mph100%30.12 "Hg2 mi
1:20 AM50 °FDrizzle. Fog.5 mph100%30.12 "Hg2 mi
12:50 AM50 °FDrizzle. Fog.6 mph100%30.12 "Hg2 mi
12:20 AM50 °FDrizzle. Fog.7 mph100%30.12 "Hg2 mi
11:20 PM
Thu, Oct 8
50 °FDrizzle. Fog.8 mph100%30.12 "Hg2 mi
10:50 PM52 °FDrizzle. Fog.8 mph100%30.12 "Hg2 mi
10:20 PM52 °FDrizzle. Fog.8 mph100%30.12 "Hg2 mi
9:50 PM54 °FDrizzle. Fog.8 mph100%30.12 "Hg2 mi
9:20 PM54 °FDrizzle. Fog.6 mph100%30.12 "Hg2 mi
8:50 PM55 °FFog.5 mph100%30.12 "Hg2 mi
8:20 PM55 °FFog.5 mph100%30.12 "Hg2 mi
7:50 PM55 °FFog.5 mph100%30.12 "Hg2 mi
7:20 PM55 °FFog.5 mph100%30.12 "Hg2 mi
6:50 PM57 °FFog.5 mph100%30.09 "Hg2 mi
6:20 PM57 °FFog.3 mph100%30.09 "Hg3 mi
5:50 PM57 °FLight rain. Fog.6 mph100%30.09 "Hg2 mi
5:20 PM59 °FMore clouds than sun.3 mph88%30.09 "HgN/A
4:50 PM59 °FMostly cloudy.3 mph88%30.09 "HgN/A
4:20 PM59 °FMore clouds than sun.3 mph94%30.09 "HgN/A
3:50 PM57 °FMore clouds than sun.5 mph94%30.09 "HgN/A
3:20 PM59 °FMore clouds than sun.6 mph88%30.09 "HgN/A
2:50 PM59 °FMore clouds than sun.6 mph94%30.09 "HgN/A
2:20 PM59 °FMore clouds than sun.7 mph88%30.07 "HgN/A
1:50 PM59 °FMore clouds than sun.6 mph88%30.07 "HgN/A
1:20 PM59 °FMostly cloudy.7 mph88%30.07 "HgN/A
12:50 PM59 °FMostly cloudy.8 mph94%30.07 "HgN/A
12:20 PM59 °FMostly cloudy.7 mph94%30.07 "HgN/A
11:50 AM59 °FMostly cloudy.7 mph94%30.07 "HgN/A
11:20 AM59 °FMostly cloudy.10 mph94%30.07 "HgN/A
10:50 AM59 °FMostly cloudy.10 mph94%30.07 "Hg5 mi
10:20 AM57 °FMostly cloudy.9 mph100%30.04 "Hg4 mi
9:50 AM57 °FMostly cloudy.8 mph100%30.04 "Hg3 mi
9:20 AM57 °FFog.8 mph100%30.04 "Hg3 mi
8:50 AM57 °FFog.7 mph100%30.04 "Hg2 mi
8:20 AM57 °FFog.7 mph100%30.01 "Hg1 mi
7:50 AM57 °FDrizzle. Fog.9 mph100%30.01 "Hg1 mi
7:20 AM57 °FDrizzle. Fog.10 mph100%30.01 "Hg2 mi
6:50 AM57 °FDrizzle. Fog.8 mph100%30.01 "Hg2 mi
5:20 AM57 °FDrizzle. Fog.8 mph100%29.98 "Hg2 mi
Weather by CustomWeather, © 2015

See weather overviewHow to use our weather pages